Location: Casilda
(33.0440°S, 61.1680°W)
Time: 16:57:29
(UTC-03:00)

ISS - Pass Details

Date: 30 November 2020
Orbit: 418 x 420 km, 51.6° (Epoch: 04 December)

Event Time Altitude Azimuth Distance (km) Brightness Sun altitude
Exits shadow 02:30:37 11° 118° (ESE) 1,491 -0.4 -30.5°
Drops below altitude 10° 02:30:41 10° 118° (ESE) 1,518 -0.3 -30.5°
Sets 02:32:54 0° 126° (SE) 2,395 1.0 -30.3°
